Tracking 27419 objects as of 9-Jun-2023
HD Live streaming from Space Station
objects crossing your sky now

DELTA 1 DEB

Track DELTA 1 DEB now!
10-day predictions


NORAD ID: 7014
Int'l Code: 1973-086E
Perigee: 875.8 km
Apogee: 1,486.7 km
Inclination: 101.7 °
Period: 108.9 minutes
Semi major axis: 7552 km
RCS: 0.109 m2 (medium)
Launch date: November 6, 1973
Source: United States (US)
Launch site: AIR FORCE WESTERN TEST RANGE (AFWTR)

Note: This is SATELLITE DEBRIS
Your satellite tracking list
Your tracking list is empty




NASA's NSSDC Master Catalog

Two Line Element Set (TLE):
1 07014U 73086E   23159.39798428  .00000089  00000-0  22204-3 0  9996
2 07014 101.6803  75.9716 0404488 193.1410 165.8907 13.22780408390165
Source of the keplerian elements: AFSPC